| time (UTC) | temp F | wind direction | speed MPH | gust MPH | rain 1hr in | rain 24hr in | rain mn in | humidity % | barometer mb |
| 20260831181527 | 94 | 330 | 0.0 | 3.0 | 0.00 | 0.00 | 0.00 | 41 | 1011.9 |
| 20260831181005 | 94 | 330 | 1.0 | 3.0 | 0.00 | 0.00 | 0.00 | 42 | 1012.0 |
| 20260831180548 | 94 | 330 | 0.0 | 3.0 | 0.00 | 0.00 | 0.00 | 45 | 1012.0 |
| 20260831180027 | 93 | 330 | 0.0 | 3.0 | 0.00 | 0.00 | 0.00 | 43 | 1012.2 |
| 20260831175506 | 93 | 330 | 0.0 | 3.0 | 0.00 | 0.00 | 0.00 | 43 | 1012.1 |
| 20260831175049 | 93 | 211 | 0.0 | 2.0 | 0.00 | 0.00 | 0.00 | 46 | 1012.2 |
| 20260831174536 | 93 | 137 | 0.0 | 4.0 | 0.00 | 0.00 | 0.00 | 48 | 1012.2 |
| 20260831174011 | 92 | 169 | 1.0 | 4.0 | 0.00 | 0.00 | 0.00 | 49 | 1012.2 |
| 20260831173554 | 92 | 224 | 0.0 | 3.0 | 0.00 | 0.00 | 0.00 | 50 | 1012.3 |
| 20260831173032 | 91 | 224 | 0.0 | 3.0 | 0.00 | 0.00 | 0.00 | 52 | 1012.4 |
| 20260831172510 | 91 | 227 | 0.0 | 5.0 | 0.00 | 0.00 | 0.00 | 51 | 1012.5 |
| 20260831172053 | 90 | 107 | 0.0 | 5.0 | 0.00 | 0.00 | 0.00 | 51 | 1012.7 |
| 20260831171536 | 90 | 239 | 0.0 | 2.0 | 0.00 | 0.00 | 0.00 | 51 | 1012.6 |
| 20260831171013 | 90 | 239 | 0.0 | 2.0 | 0.00 | 0.00 | 0.00 | 51 | 1012.7 |
| 20260831170557 | 89 | 239 | 0.0 | 2.0 | 0.00 | 0.00 | 0.00 | 51 | 1012.8 |
| 20260831170037 | 89 | 264 | 0.0 | 2.0 | 0.00 | 0.00 | 0.00 | 51 | 1012.8 |
| 20260831165517 | 89 | 264 | 0.0 | 2.0 | 0.00 | 0.00 | 0.00 | 51 | 1012.9 |
| 20260831165101 | 88 | 264 | 0.0 | 3.0 | 0.00 | 0.00 | 0.00 | 54 | 1012.9 |
| 20260831164539 | 88 | 264 | 0.0 | 3.0 | 0.00 | 0.00 | 0.00 | 53 | 1012.9 |
| 20260831164019 | 88 | 241 | 0.0 | 3.0 | 0.00 | 0.00 | 0.00 | 54 | 1013.0 |
| 20260831163604 | 88 | 285 | 0.0 | 2.0 | 0.00 | 0.00 | 0.00 | 54 | 1013.0 |
| 20260831163042 | 88 | 285 | 0.0 | 3.0 | 0.00 | 0.00 | 0.00 | 53 | 1012.9 |
| 20260831162524 | 87 | 285 | 0.0 | 4.0 | 0.00 | 0.00 | 0.00 | 52 | 1013.0 |
| 20260831162000 | 87 | 325 | 0.0 | 4.0 | 0.00 | 0.00 | 0.00 | 56 | 1012.9 |
| 20260831161549 | 86 | 257 | 0.0 | 1.0 | 0.00 | 0.00 | 0.00 | 55 | 1013.0 |
| 20260831161024 | 86 | 257 | 0.0 | 2.0 | 0.00 | 0.00 | 0.00 | 55 | 1013.0 |
| 20260831160502 | 86 | 257 | 0.0 | 2.0 | 0.00 | 0.00 | 0.00 | 54 | 1012.9 |
| 20260831160046 | 86 | 163 | 0.0 | 2.0 | 0.00 | 0.00 | 0.00 | 54 | 1012.9 |
| 20260831155526 | 86 | 165 | 0.0 | 2.0 | 0.00 | 0.00 | 0.00 | 56 | 1013.0 |
| 20260831155006 | 85 | 254 | 0.0 | 1.0 | 0.00 | 0.00 | 0.00 | 56 | 1012.9 |
| 20260831154553 | 85 | 254 | 0.0 | 1.0 | 0.00 | 0.00 | 0.00 | 57 | 1012.9 |
| 20260831154029 | 85 | 153 | 0.0 | 1.0 | 0.00 | 0.00 | 0.00 | 58 | 1013.0 |
| 20260831153506 | 84 | 274 | 0.0 | 1.0 | 0.00 | 0.00 | 0.00 | 59 | 1012.9 |
| 20260831153053 | 84 | 127 | 0.0 | 1.0 | 0.00 | 0.00 | 0.00 | 60 | 1013.0 |
| 20260831152531 | 83 | 110 | 0.0 | 3.0 | 0.00 | 0.00 | 0.00 | 59 | 1013.1 |
| 20260831152009 | 83 | 110 | 0.0 | 3.0 | 0.00 | 0.00 | 0.00 | 61 | 1013.0 |
| 20260831151558 | 83 | 137 | 0.0 | 2.0 | 0.00 | 0.00 | 0.00 | 63 | 1013.1 |
| 20260831151035 | 83 | 149 | 0.0 | 2.0 | 0.00 | 0.00 | 0.00 | 63 | 1013.0 |
| 20260831150512 | 83 | 147 | 0.0 | 2.0 | 0.00 | 0.00 | 0.00 | 64 | 1012.9 |
| 20260831150056 | 82 | 165 | 0.0 | 1.0 | 0.00 | 0.00 | 0.00 | 66 | 1012.9 |
| 20260831145535 | 82 | 142 | 0.0 | 3.0 | 0.00 | 0.00 | 0.00 | 64 | 1013.0 |
| 20260831145017 | 82 | 141 | 0.0 | 3.0 | 0.00 | 0.00 | 0.00 | 65 | 1012.9 |
| 20260831144644 | 81 | 156 | 0.0 | 3.0 | 0.00 | 0.00 | 0.00 | 65 | 1013.0 |
| 20260831144038 | 81 | 147 | 0.0 | 3.0 | 0.00 | 0.00 | 0.00 | 66 | 1013.0 |
| 20260831143522 | 80 | 155 | 0.0 | 3.0 | 0.00 | 0.00 | 0.00 | 67 | 1013.0 |
| 20260831143104 | 80 | 165 | 0.0 | 3.0 | 0.00 | 0.00 | 0.00 | 68 | 1013.0 |
| 20260831142542 | 80 | 174 | 0.0 | 3.0 | 0.00 | 0.00 | 0.00 | 68 | 1013.1 |
| 20260831142019 | 79 | 150 | 1.0 | 3.0 | 0.00 | 0.00 | 0.00 | 67 | 1013.1 |
| 20260831141603 | 79 | 160 | 0.0 | 2.0 | 0.00 | 0.00 | 0.00 | 68 | 1013.1 |
| 20260831141042 | 79 | 163 | 0.0 | 2.0 | 0.00 | 0.00 | 0.00 | 69 | 1013.1 |
| 20260831140522 | 78 | 131 | 0.0 | 0.0 | 0.00 | 0.00 | 0.00 | 69 | 1013.1 |
| 20260831140010 | 78 | 164 | 0.0 | 1.0 | 0.00 | 0.00 | 0.00 | 69 | 1013.1 |
| 20260831135553 | 78 | 164 | 0.0 | 1.0 | 0.00 | 0.00 | 0.00 | 70 | 1013.1 |
| 20260831135033 | 77 | 127 | 0.0 | 1.0 | 0.00 | 0.00 | 0.00 | 70 | 1013.1 |
| 20260831134513 | 76 | 114 | 0.0 | 2.0 | 0.00 | 0.00 | 0.00 | 70 | 1013.1 |
| 20260831134055 | 76 | 156 | 0.0 | 2.0 | 0.00 | 0.00 | 0.00 | 70 | 1013.1 |
| 20260831133535 | 76 | 165 | 0.0 | 2.0 | 0.00 | 0.00 | 0.00 | 71 | 1013.1 |
| 20260831133016 | 76 | 171 | 0.0 | 2.0 | 0.00 | 0.00 | 0.00 | 70 | 1013.0 |
| 20260831132559 | 76 | 171 | 0.0 | 2.0 | 0.00 | 0.00 | 0.00 | 70 | 1013.0 |
| 20260831132039 | 76 | 170 | 0.0 | 2.0 | 0.00 | 0.00 | 0.00 | 70 | 1013.0 |
| 20260831131519 | 76 | 170 | 0.0 | 2.0 | 0.00 | 0.00 | 0.00 | 71 | 1013.0 |
| 20260831131104 | 76 | 126 | 0.0 | 2.0 | 0.00 | 0.00 | 0.00 | 70 | 1013.0 |
| 20260831130543 | 75 | 139 | 0.0 | 3.0 | 0.00 | 0.00 | 0.00 | 71 | 1012.9 |
| 20260831130023 | 75 | 113 | 0.0 | 3.0 | 0.00 | 0.00 | 0.00 | 71 | 1012.8 |
| 20260831125501 | 75 | 162 | 0.0 | 2.0 | 0.00 | 0.00 | 0.00 | 71 | 1012.7 |
| 20260831125044 | 75 | 126 | 0.0 | 3.0 | 0.00 | 0.00 | 0.00 | 71 | 1012.6 |
| 20260831124524 | 75 | 170 | 1.0 | 3.0 | 0.00 | 0.00 | 0.00 | 71 | 1012.6 |
| 20260831124004 | 74 | 173 | 0.0 | 2.0 | 0.00 | 0.00 | 0.00 | 71 | 1012.6 |
| 20260831123546 | 74 | 149 | 0.0 | 2.0 | 0.00 | 0.00 | 0.00 | 71 | 1012.6 |
| 20260831123032 | 74 | 155 | 0.0 | 2.0 | 0.00 | 0.00 | 0.00 | 71 | 1012.5 |
| 20260831122505 | 74 | 144 | 0.0 | 2.0 | 0.00 | 0.00 | 0.00 | 71 | 1012.5 |
| 20260831122049 | 74 | 158 | 0.0 | 2.0 | 0.00 | 0.00 | 0.00 | 71 | 1012.5 |
| 20260831121540 | 74 | 124 | 0.0 | 2.0 | 0.00 | 0.00 | 0.00 | 71 | 1012.5 |
| 20260831121012 | 74 | 134 | 0.0 | 2.0 | 0.00 | 0.00 | 0.00 | 71 | 1012.4 |
| 20260831120554 | 74 | 129 | 0.0 | 2.0 | 0.00 | 0.00 | 0.00 | 71 | 1012.3 |
| 20260831120037 | 74 | 128 | 0.0 | 2.0 | 0.00 | 0.00 | 0.00 | 71 | 1012.3 |
| 20260831115511 | 74 | 136 | 0.0 | 2.0 | 0.00 | 0.00 | 0.00 | 71 | 1012.4 |
| 20260831115054 | 74 | 158 | 0.0 | 3.0 | 0.00 | 0.00 | 0.00 | 71 | 1012.3 |
| 20260831114548 | 74 | 162 | 0.0 | 3.0 | 0.00 | 0.00 | 0.00 | 71 | 1012.2 |
| 20260831114014 | 75 | 131 | 0.0 | 2.0 | 0.00 | 0.00 | 0.00 | 70 | 1012.2 |
| 20260831113558 | 75 | 167 | 0.0 | 2.0 | 0.00 | 0.00 | 0.00 | 70 | 1012.2 |
| 20260831113040 | 75 | 143 | 0.0 | 2.0 | 0.00 | 0.00 | 0.00 | 70 | 1012.1 |
| 20260831112521 | 74 | 149 | 0.0 | 2.0 | 0.00 | 0.00 | 0.00 | 70 | 1012.1 |
| 20260831112101 | 74 | 134 | 0.0 | 1.0 | 0.00 | 0.00 | 0.00 | 70 | 1012.1 |
| 20260831111546 | 74 | 153 | 0.0 | 2.0 | 0.00 | 0.00 | 0.00 | 70 | 1011.9 |
| 20260831111018 | 75 | 143 | 0.0 | 2.0 | 0.00 | 0.00 | 0.00 | 70 | 1011.8 |
| 20260831110602 | 75 | 159 | 0.0 | 2.0 | 0.00 | 0.00 | 0.00 | 70 | 1011.8 |
| 20260831110041 | 75 | 141 | 0.0 | 2.0 | 0.00 | 0.00 | 0.00 | 70 | 1011.9 |
| 20260831105521 | 75 | 108 | 0.0 | 2.0 | 0.00 | 0.00 | 0.00 | 70 | 1011.8 |
| 20260831105107 | 75 | 101 | 0.0 | 2.0 | 0.00 | 0.00 | 0.00 | 70 | 1011.7 |
| 20260831104546 | 75 | 155 | 0.0 | 2.0 | 0.00 | 0.00 | 0.00 | 70 | 1011.6 |
| 20260831104023 | 75 | 122 | 0.0 | 3.0 | 0.00 | 0.00 | 0.00 | 70 | 1011.5 |
| 20260831103504 | 75 | 144 | 1.0 | 3.0 | 0.00 | 0.00 | 0.00 | 70 | 1011.4 |
| 20260831103047 | 75 | 154 | 0.0 | 2.0 | 0.00 | 0.00 | 0.00 | 70 | 1011.4 |
| 20260831102529 | 75 | 155 | 0.0 | 2.0 | 0.00 | 0.00 | 0.00 | 70 | 1011.4 |
| 20260831102006 | 75 | 139 | 0.0 | 2.0 | 0.00 | 0.00 | 0.00 | 69 | 1011.4 |
| 20260831101550 | 75 | 124 | 0.0 | 2.0 | 0.00 | 0.00 | 0.00 | 69 | 1011.4 |
| 20260831101030 | 75 | 162 | 0.0 | 2.0 | 0.00 | 0.00 | 0.00 | 69 | 1011.2 |
| 20260831100509 | 76 | 169 | 0.0 | 1.0 | 0.00 | 0.00 | 0.00 | 69 | 1011.3 |
| 20260831100115 | 76 | 145 | 0.0 | 1.0 | 0.00 | 0.00 | 0.00 | 69 | 1011.3 |
| 20260831095532 | 76 | 150 | 0.0 | 2.0 | 0.00 | 0.00 | 0.00 | 69 | 1011.3 |
| 20260831095011 | 76 | 142 | 0.0 | 2.0 | 0.00 | 0.00 | 0.00 | 68 | 1011.2 |
| 20260831094556 | 76 | 158 | 0.0 | 2.0 | 0.00 | 0.00 | 0.00 | 68 | 1011.2 |
| 20260831094034 | 76 | 169 | 0.0 | 2.0 | 0.00 | 0.00 | 0.00 | 68 | 1011.3 |
| 20260831093517 | 76 | 148 | 0.0 | 3.0 | 0.00 | 0.00 | 0.00 | 68 | 1011.3 |
| 20260831093059 | 76 | 128 | 0.0 | 3.0 | 0.00 | 0.00 | 0.00 | 67 | 1011.2 |
| 20260831092537 | 76 | 161 | 0.0 | 2.0 | 0.00 | 0.00 | 0.00 | 67 | 1011.3 |
| 20260831092022 | 77 | 137 | 0.0 | 3.0 | 0.00 | 0.00 | 0.00 | 67 | 1011.2 |
| 20260831091605 | 77 | 157 | 1.0 | 3.0 | 0.00 | 0.00 | 0.00 | 66 | 1011.2 |
| 20260831091040 | 77 | 137 | 0.0 | 3.0 | 0.00 | 0.00 | 0.00 | 66 | 1011.2 |
| 20260831090520 | 77 | 115 | 1.0 | 3.0 | 0.00 | 0.00 | 0.00 | 66 | 1011.1 |
| 20260831085542 | 77 | 158 | 0.0 | 2.0 | 0.00 | 0.00 | 0.00 | 66 | 1011.1 |
| 20260831085022 | 77 | 134 | 0.0 | 2.0 | 0.00 | 0.00 | 0.00 | 65 | 1011.1 |
| 20260831084501 | 77 | 159 | 0.0 | 2.0 | 0.00 | 0.00 | 0.00 | 65 | 1011.1 |
| 20260831084044 | 77 | 140 | 0.0 | 2.0 | 0.00 | 0.00 | 0.00 | 65 | 1011.1 |
| 20260831083524 | 77 | 155 | 0.0 | 2.0 | 0.00 | 0.00 | 0.00 | 65 | 1011.1 |
| 20260831083003 | 77 | 134 | 0.0 | 2.0 | 0.00 | 0.00 | 0.00 | 65 | 1011.2 |
| 20260831082547 | 77 | 155 | 0.0 | 2.0 | 0.00 | 0.00 | 0.00 | 65 | 1011.2 |
| 20260831082026 | 77 | 122 | 0.0 | 2.0 | 0.00 | 0.00 | 0.00 | 65 | 1011.1 |
| 20260831081506 | 77 | 141 | 0.0 | 3.0 | 0.00 | 0.00 | 0.00 | 65 | 1011.1 |
| 20260831081049 | 77 | 171 | 0.0 | 3.0 | 0.00 | 0.00 | 0.00 | 65 | 1011.0 |
| 20260831080529 | 77 | 139 | 0.0 | 2.0 | 0.00 | 0.00 | 0.00 | 65 | 1010.9 |
| 20260831080007 | 77 | 155 | 0.0 | 2.0 | 0.00 | 0.00 | 0.00 | 65 | 1010.9 |
| 20260831075551 | 77 | 136 | 0.0 | 2.0 | 0.00 | 0.00 | 0.00 | 65 | 1010.8 |
| 20260831075032 | 78 | 155 | 0.0 | 2.0 | 0.00 | 0.00 | 0.00 | 64 | 1010.8 |
| 20260831074510 | 78 | 146 | 0.0 | 2.0 | 0.00 | 0.00 | 0.00 | 65 | 1010.8 |
| 20260831074054 | 78 | 158 | 0.0 | 3.0 | 0.00 | 0.00 | 0.00 | 65 | 1010.8 |
| 20260831073534 | 78 | 129 | 0.0 | 3.0 | 0.00 | 0.00 | 0.00 | 65 | 1010.8 |
| 20260831073017 | 78 | 155 | 0.0 | 3.0 | 0.00 | 0.00 | 0.00 | 65 | 1010.7 |
| 20260831072556 | 78 | 146 | 0.0 | 2.0 | 0.00 | 0.00 | 0.00 | 65 | 1010.8 |
| 20260831072036 | 78 | 157 | 0.0 | 3.0 | 0.00 | 0.00 | 0.00 | 65 | 1010.8 |
| 20260831071518 | 78 | 155 | 0.0 | 3.0 | 0.00 | 0.00 | 0.00 | 65 | 1010.7 |
| 20260831071059 | 78 | 141 | 0.0 | 3.0 | 0.00 | 0.00 | 0.00 | 65 | 1010.7 |
| 20260831070538 | 78 | 159 | 0.0 | 3.0 | 0.00 | 0.00 | 0.00 | 64 | 1010.7 |
| 20260831070017 | 78 | 124 | 1.0 | 2.0 | 0.00 | 0.00 | 0.00 | 64 | 1010.6 |
| 20260831065603 | 78 | 133 | 1.0 | 2.0 | 0.00 | 0.00 | 0.00 | 64 | 1010.6 |
| 20260831065041 | 78 | 154 | 0.0 | 2.0 | 0.00 | 0.00 | 0.00 | 64 | 1010.7 |
| 20260831064523 | 78 | 138 | 0.0 | 3.0 | 0.00 | 0.00 | 0.00 | 63 | 1010.6 |
| 20260831064102 | 78 | 162 | 0.0 | 3.0 | 0.00 | 0.00 | 0.00 | 63 | 1010.5 |
| 20260831063542 | 78 | 139 | 0.0 | 2.0 | 0.00 | 0.00 | 0.00 | 63 | 1010.5 |
| 20260831063025 | 79 | 150 | 0.0 | 2.0 | 0.00 | 0.00 | 0.00 | 63 | 1010.5 |
| 20260831062501 | 79 | 139 | 0.0 | 2.0 | 0.00 | 0.00 | 0.00 | 63 | 1010.4 |
| 20260831062045 | 79 | 133 | 0.0 | 2.0 | 0.00 | 0.00 | 0.00 | 62 | 1010.4 |
| 20260831061525 | 79 | 128 | 0.0 | 1.0 | 0.00 | 0.00 | 0.00 | 62 | 1010.4 |
| 20260831061006 | 79 | 160 | 0.0 | 2.0 | 0.00 | 0.00 | 0.00 | 61 | 1010.3 |
| 20260831060546 | 79 | 130 | 0.0 | 2.0 | 0.00 | 0.00 | 0.00 | 61 | 1010.3 |
| 20260831060027 | 80 | 163 | 0.0 | 1.0 | 0.00 | 0.00 | 0.00 | 60 | 1010.3 |
| 20260831055505 | 80 | 158 | 0.0 | 2.0 | 0.00 | 0.00 | 0.00 | 60 | 1010.3 |
| 20260831055049 | 80 | 139 | 0.0 | 2.0 | 0.00 | 0.00 | 0.00 | 60 | 1010.2 |
| 20260831054528 | 80 | 146 | 0.0 | 2.0 | 0.00 | 0.00 | 0.00 | 60 | 1010.2 |
| 20260831054006 | 80 | 153 | 0.0 | 2.0 | 0.00 | 0.00 | 0.00 | 59 | 1010.1 |
| 20260831053550 | 80 | 153 | 0.0 | 2.0 | 0.00 | 0.00 | 0.00 | 59 | 1010.0 |
| 20260831053032 | 80 | 140 | 0.0 | 2.0 | 0.00 | 0.00 | 0.00 | 60 | 1010.1 |
| 20260831052509 | 80 | 148 | 0.0 | 2.0 | 0.00 | 0.00 | 0.00 | 59 | 1010.2 |
| 20260831052052 | 80 | 141 | 0.0 | 2.0 | 0.00 | 0.00 | 0.00 | 59 | 1010.1 |
| 20260831051531 | 81 | 132 | 0.0 | 2.0 | 0.00 | 0.00 | 0.00 | 59 | 1010.0 |
| 20260831051010 | 81 | 127 | 0.0 | 2.0 | 0.00 | 0.00 | 0.00 | 58 | 1010.0 |
| 20260831050553 | 81 | 153 | 0.0 | 1.0 | 0.00 | 0.00 | 0.00 | 58 | 1010.0 |
| 20260831050033 | 81 | 153 | 0.0 | 1.0 | 0.00 | 0.00 | 0.00 | 58 | 1010.0 |
| 20260831045513 | 81 | 146 | 0.0 | 1.0 | 0.00 | 0.00 | 0.00 | 57 | 1010.1 |
| 20260831045057 | 81 | 136 | 0.0 | 1.0 | 0.00 | 0.00 | 0.00 | 58 | 1010.1 |
| 20260831044536 | 82 | 150 | 0.0 | 0.0 | 0.00 | 0.00 | 0.00 | 57 | 1010.2 |
| 20260831044015 | 82 | 153 | 0.0 | 1.0 | 0.00 | 0.00 | 0.00 | 56 | 1010.2 |
| 20260831043558 | 82 | 162 | 0.0 | 1.0 | 0.00 | 0.00 | 0.00 | 56 | 1010.2 |
| 20260831043044 | 82 | 146 | 0.0 | 1.0 | 0.00 | 0.00 | 0.00 | 56 | 1010.1 |
| 20260831042518 | 82 | 146 | 0.0 | 1.0 | 0.00 | 0.00 | 0.00 | 56 | 1010.1 |
| 20260831042103 | 83 | 146 | 0.0 | 1.0 | 0.00 | 0.00 | 0.00 | 55 | 1010.1 |
| 20260831041553 | 83 | 124 | 0.0 | 1.0 | 0.00 | 0.00 | 0.00 | 55 | 1010.1 |
| 20260831041021 | 83 | 152 | 0.0 | 1.0 | 0.00 | 0.00 | 0.00 | 55 | 1010.2 |
| 20260831040604 | 83 | 140 | 0.0 | 1.0 | 0.00 | 0.00 | 0.00 | 54 | 1010.1 |
| 20260831040043 | 83 | 131 | 0.0 | 0.0 | 0.00 | 0.00 | 0.00 | 54 | 1010.2 |
| 20260831035524 | 84 | 129 | 0.0 | 0.0 | 0.00 | 0.00 | 0.00 | 54 | 1010.2 |
| 20260831035002 | 84 | 134 | 0.0 | 0.0 | 0.00 | 0.00 | 0.00 | 54 | 1010.2 |
| 20260831034546 | 84 | 156 | 0.0 | 1.0 | 0.00 | 0.00 | 0.00 | 54 | 1010.2 |
| 20260831034025 | 84 | 169 | 0.0 | 1.0 | 0.00 | 0.00 | 0.00 | 54 | 1010.2 |
| 20260831033508 | 84 | 144 | 0.0 | 2.0 | 0.00 | 0.00 | 0.00 | 54 | 1010.1 |
| 20260831033105 | 84 | 152 | 0.0 | 2.0 | 0.00 | 0.00 | 0.00 | 54 | 1010.1 |
| 20260831032530 | 84 | 117 | 0.0 | 2.0 | 0.00 | 0.00 | 0.00 | 54 | 1010.1 |
| 20260831032008 | 84 | 143 | 0.0 | 2.0 | 0.00 | 0.00 | 0.00 | 53 | 1010.1 |
| 20260831031554 | 85 | 136 | 0.0 | 2.0 | 0.00 | 0.00 | 0.00 | 53 | 1010.0 |
| 20260831031031 | 85 | 166 | 0.0 | 1.0 | 0.00 | 0.00 | 0.00 | 53 | 1010.0 |
| 20260831030511 | 85 | 143 | 0.0 | 2.0 | 0.00 | 0.00 | 0.00 | 53 | 1010.1 |
| 20260831030053 | 85 | 157 | 0.0 | 2.0 | 0.00 | 0.00 | 0.00 | 53 | 1010.0 |
| 20260831025533 | 85 | 146 | 0.0 | 2.0 | 0.00 | 0.00 | 0.00 | 53 | 1010.0 |
| 20260831025012 | 85 | 163 | 0.0 | 2.0 | 0.00 | 0.00 | 0.00 | 53 | 1010.0 |
| 20260831024600 | 85 | 130 | 0.0 | 2.0 | 0.00 | 0.00 | 0.00 | 53 | 1009.9 |
| 20260831024037 | 85 | 153 | 0.0 | 2.0 | 0.00 | 0.00 | 0.00 | 53 | 1009.9 |
| 20260831023515 | 85 | 149 | 0.0 | 2.0 | 0.00 | 0.00 | 0.00 | 53 | 1009.9 |
| 20260831023100 | 85 | 146 | 0.0 | 2.0 | 0.00 | 0.00 | 0.00 | 53 | 1009.8 |
| 20260831022537 | 85 | 155 | 0.0 | 1.0 | 0.00 | 0.00 | 0.00 | 53 | 1009.8 |
| 20260831022017 | 86 | 119 | 0.0 | 1.0 | 0.00 | 0.00 | 0.00 | 53 | 1009.7 |
| 20260831021600 | 86 | 140 | 0.0 | 1.0 | 0.00 | 0.00 | 0.00 | 53 | 1009.7 |
| 20260831021041 | 86 | 134 | 0.0 | 2.0 | 0.00 | 0.00 | 0.00 | 52 | 1009.7 |
| 20260831020522 | 86 | 154 | 0.0 | 2.0 | 0.00 | 0.00 | 0.00 | 52 | 1009.7 |
| 20260831015541 | 86 | 141 | 0.0 | 1.0 | 0.00 | 0.00 | 0.00 | 52 | 1009.5 |
| 20260831015020 | 86 | 150 | 0.0 | 2.0 | 0.00 | 0.00 | 0.00 | 52 | 1009.4 |
| 20260831014606 | 87 | 141 | 0.0 | 2.0 | 0.00 | 0.00 | 0.00 | 52 | 1009.3 |
| 20260831014044 | 87 | 139 | 0.0 | 1.0 | 0.00 | 0.00 | 0.00 | 52 | 1009.3 |
| 20260831013524 | 87 | 148 | 0.0 | 1.0 | 0.00 | 0.00 | 0.00 | 52 | 1009.3 |
| 20260831013003 | 87 | 141 | 0.0 | 1.0 | 0.00 | 0.00 | 0.00 | 51 | 1009.2 |
| 20260831012546 | 87 | 153 | 0.0 | 1.0 | 0.00 | 0.00 | 0.00 | 52 | 1009.2 |
| 20260831012026 | 88 | 118 | 0.0 | 1.0 | 0.00 | 0.00 | 0.00 | 52 | 1009.1 |
| 20260831011515 | 88 | 142 | 0.0 | 0.0 | 0.00 | 0.00 | 0.00 | 51 | 1009.1 |
| 20260831011049 | 88 | 142 | 0.0 | 0.0 | 0.00 | 0.00 | 0.00 | 51 | 1009.1 |
| 20260831010529 | 89 | 142 | 0.0 | 0.0 | 0.00 | 0.00 | 0.00 | 51 | 1009.0 |
| 20260831010013 | 89 | 142 | 0.0 | 1.0 | 0.00 | 0.00 | 0.00 | 50 | 1008.9 |
| 20260831005554 | 89 | 141 | 0.0 | 1.0 | 0.00 | 0.00 | 0.00 | 49 | 1008.9 |
| 20260831005031 | 90 | 141 | 0.0 | 1.0 | 0.00 | 0.00 | 0.00 | 49 | 1008.8 |
| 20260831004513 | 90 | 153 | 0.0 | 2.0 | 0.00 | 0.00 | 0.00 | 48 | 1008.7 |
| 20260831004054 | 90 | 139 | 0.0 | 2.0 | 0.00 | 0.00 | 0.00 | 48 | 1008.7 |
| 20260831003535 | 91 | 155 | 0.0 | 2.0 | 0.00 | 0.00 | 0.00 | 47 | 1008.7 |
| 20260831003020 | 91 | 143 | 0.0 | 3.0 | 0.00 | 0.00 | 0.00 | 47 | 1008.7 |
| 20260831002555 | 91 | 171 | 0.0 | 3.0 | 0.00 | 0.00 | 0.00 | 47 | 1008.6 |
| 20260831002035 | 91 | 129 | 0.0 | 3.0 | 0.00 | 0.00 | 0.00 | 47 | 1008.6 |
| 20260831001523 | 92 | 132 | 0.0 | 3.0 | 0.00 | 0.00 | 0.00 | 46 | 1008.5 |
| 20260831001058 | 92 | 143 | 0.0 | 1.0 | 0.00 | 0.00 | 0.00 | 46 | 1008.5 |
| 20260831000538 | 92 | 133 | 0.0 | 1.0 | 0.00 | 0.00 | 0.00 | 46 | 1008.5 |
| 20260831000018 | 92 | 128 | 0.0 | 1.0 | 0.00 | 0.00 | 0.00 | 45 | 1008.6 |
| 20260830235603 | 92 | 149 | 0.0 | 1.0 | 0.00 | 0.00 | 0.00 | 45 | 1008.5 |
| 20260830235045 | 93 | 134 | 0.0 | 1.0 | 0.00 | 0.00 | 0.00 | 44 | 1008.5 |
| 20260830234518 | 93 | 148 | 0.0 | 1.0 | 0.00 | 0.00 | 0.00 | 44 | 1008.5 |
| 20260830234102 | 93 | 148 | 0.0 | 2.0 | 0.00 | 0.00 | 0.00 | 43 | 1008.6 |
| 20260830233542 | 94 | 148 | 0.0 | 2.0 | 0.00 | 0.00 | 0.00 | 42 | 1008.5 |
| 20260830233021 | 94 | 134 | 0.0 | 2.0 | 0.00 | 0.00 | 0.00 | 41 | 1008.5 |
| 20260830232501 | 94 | 145 | 0.0 | 2.0 | 0.00 | 0.00 | 0.00 | 41 | 1008.5 |
| 20260830232045 | 94 | 157 | 1.0 | 3.0 | 0.00 | 0.00 | 0.00 | 40 | 1008.5 |
| 20260830231524 | 94 | 151 | 0.0 | 2.0 | 0.00 | 0.00 | 0.00 | 40 | 1008.5 |
| 20260830231105 | 95 | 157 | 0.0 | 3.0 | 0.00 | 0.00 | 0.00 | 40 | 1008.5 |
| 20260830230543 | 95 | 128 | 0.0 | 3.0 | 0.00 | 0.00 | 0.00 | 39 | 1008.5 |
| 20260830230027 | 95 | 122 | 1.0 | 3.0 | 0.00 | 0.00 | 0.00 | 39 | 1008.4 |
| 20260830225502 | 95 | 167 | 1.0 | 3.0 | 0.00 | 0.00 | 0.00 | 40 | 1008.4 |
| 20260830225046 | 95 | 172 | 0.0 | 3.0 | 0.00 | 0.00 | 0.00 | 39 | 1008.4 |
| 20260830224525 | 95 | 164 | 0.0 | 3.0 | 0.00 | 0.00 | 0.00 | 39 | 1008.4 |
| 20260830224006 | 96 | 131 | 0.0 | 4.0 | 0.00 | 0.00 | 0.00 | 38 | 1008.5 |
| 20260830223550 | 96 | 122 | 0.0 | 4.0 | 0.00 | 0.00 | 0.00 | 38 | 1008.5 |
| 20260830223030 | 96 | 129 | 0.0 | 4.0 | 0.00 | 0.00 | 0.00 | 38 | 1008.4 |
| 20260830222509 | 96 | 129 | 2.0 | 5.0 | 0.00 | 0.00 | 0.00 | 39 | 1008.4 |
| 20260830222052 | 96 | 134 | 1.0 | 5.0 | 0.00 | 0.00 | 0.00 | 40 | 1008.4 |
| 20260830221531 | 96 | 157 | 1.0 | 4.0 | 0.00 | 0.00 | 0.00 | 41 | 1008.4 |
| 20260830221011 | 96 | 146 | 2.0 | 4.0 | 0.00 | 0.00 | 0.00 | 40 | 1008.4 |
| 20260830220555 | 96 | 176 | 2.0 | 4.0 | 0.00 | 0.00 | 0.00 | 41 | 1008.5 |
| 20260830220037 | 96 | 140 | 1.0 | 3.0 | 0.00 | 0.00 | 0.00 | 41 | 1008.6 |
| 20260830215514 | 96 | 125 | 0.0 | 4.0 | 0.00 | 0.00 | 0.00 | 41 | 1008.6 |
| 20260830215058 | 96 | 126 | 1.0 | 4.0 | 0.00 | 0.00 | 0.00 | 41 | 1008.6 |
| 20260830214537 | 96 | 124 | 0.0 | 3.0 | 0.00 | 0.00 | 0.00 | 42 | 1008.7 |
| 20260830214015 | 96 | 134 | 1.0 | 3.0 | 0.00 | 0.00 | 0.00 | 42 | 1008.7 |
| 20260830213559 | 96 | 120 | 0.0 | 4.0 | 0.00 | 0.00 | 0.00 | 43 | 1008.7 |
| 20260830213038 | 96 | 159 | 1.0 | 5.0 | 0.00 | 0.00 | 0.00 | 42 | 1008.8 |
| 20260830212519 | 96 | 146 | 1.0 | 5.0 | 0.00 | 0.00 | 0.00 | 42 | 1008.7 |
| 20260830212101 | 96 | 131 | 0.0 | 3.0 | 0.00 | 0.00 | 0.00 | 43 | 1008.7 |
| 20260830211541 | 96 | 165 | 0.0 | 3.0 | 0.00 | 0.00 | 0.00 | 42 | 1008.8 |
| 20260830211019 | 96 | 155 | 1.0 | 4.0 | 0.00 | 0.00 | 0.00 | 42 | 1008.9 |
| 20260830210602 | 96 | 165 | 2.0 | 5.0 | 0.00 | 0.00 | 0.00 | 43 | 1009.0 |
| 20260830210051 | 96 | 134 | 1.0 | 5.0 | 0.00 | 0.00 | 0.00 | 42 | 1009.0 |
| 20260830205526 | 96 | 142 | 0.0 | 4.0 | 0.00 | 0.00 | 0.00 | 42 | 1009.1 |
| 20260830205104 | 96 | 152 | 1.0 | 4.0 | 0.00 | 0.00 | 0.00 | 42 | 1009.2 |
| 20260830204548 | 96 | 132 | 0.0 | 4.0 | 0.00 | 0.00 | 0.00 | 43 | 1009.2 |
| 20260830204024 | 96 | 158 | 1.0 | 4.0 | 0.00 | 0.00 | 0.00 | 42 | 1009.4 |
| 20260830203503 | 96 | 168 | 1.0 | 6.0 | 0.00 | 0.00 | 0.00 | 42 | 1009.5 |
| 20260830203046 | 96 | 129 | 2.0 | 5.0 | 0.00 | 0.00 | 0.00 | 41 | 1009.6 |
| 20260830202525 | 96 | 146 | 0.0 | 5.0 | 0.00 | 0.00 | 0.00 | 42 | 1009.7 |
| 20260830202005 | 96 | 162 | 2.0 | 4.0 | 0.00 | 0.00 | 0.00 | 41 | 1009.7 |
| 20260830201550 | 96 | 124 | 0.0 | 4.0 | 0.00 | 0.00 | 0.00 | 42 | 1009.8 |
| 20260830201028 | 95 | 130 | 0.0 | 4.0 | 0.00 | 0.00 | 0.00 | 43 | 1009.8 |
| 20260830200506 | 95 | 128 | 0.0 | 5.0 | 0.00 | 0.00 | 0.00 | 43 | 1009.7 |
| 20260830200105 | 95 | 122 | 1.0 | 6.0 | 0.00 | 0.00 | 0.00 | 42 | 1009.9 |
| 20260830195530 | 95 | 174 | 2.0 | 6.0 | 0.00 | 0.00 | 0.00 | 42 | 1009.9 |
| 20260830195009 | 95 | 164 | 2.0 | 6.0 | 0.00 | 0.00 | 0.00 | 42 | 1010.0 |
| 20260830194618 | 95 | 162 | 1.0 | 6.0 | 0.00 | 0.00 | 0.00 | 43 | 1010.1 |
| 20260830194029 | 95 | 155 | 1.0 | 6.0 | 0.00 | 0.00 | 0.00 | 43 | 1010.1 |
| 20260830193509 | 95 | 155 | 1.0 | 5.0 | 0.00 | 0.00 | 0.00 | 43 | 1010.2 |
| 20260830193052 | 95 | 158 | 1.0 | 5.0 | 0.00 | 0.00 | 0.00 | 45 | 1010.3 |
| 20260830192531 | 95 | 145 | 1.0 | 5.0 | 0.00 | 0.00 | 0.00 | 43 | 1010.2 |
| 20260830192010 | 94 | 175 | 0.0 | 5.0 | 0.00 | 0.00 | 0.00 | 44 | 1010.4 |
| 20260830191559 | 95 | 174 | 1.0 | 5.0 | 0.00 | 0.00 | 0.00 | 44 | 1010.3 |
| 20260830191034 | 95 | 165 | 0.0 | 4.0 | 0.00 | 0.00 | 0.00 | 45 | 1010.4 |
| 20260830190513 | 95 | 165 | 2.0 | 4.0 | 0.00 | 0.00 | 0.00 | 44 | 1010.4 |
| 20260830190057 | 94 | 137 | 0.0 | 4.0 | 0.00 | 0.00 | 0.00 | 46 | 1010.5 |
| 20260830185537 | 94 | 141 | 0.0 | 4.0 | 0.00 | 0.00 | 0.00 | 45 | 1010.5 |
| 20260830185015 | 93 | 131 | 1.0 | 5.0 | 0.00 | 0.00 | 0.00 | 46 | 1010.6 |
| 20260830184558 | 93 | 148 | 1.0 | 4.0 | 0.00 | 0.00 | 0.00 | 45 | 1010.7 |
| 20260830184038 | 93 | 140 | 1.0 | 5.0 | 0.00 | 0.00 | 0.00 | 46 | 1010.7 |
| 20260830183518 | 93 | 127 | 0.0 | 5.0 | 0.00 | 0.00 | 0.00 | 47 | 1010.7 |
| 20260830183117 | 93 | 136 | 1.0 | 5.0 | 0.00 | 0.00 | 0.00 | 47 | 1010.7 |
| 20260830182540 | 92 | 173 | 0.0 | 5.0 | 0.00 | 0.00 | 0.00 | 47 | 1010.7 |